QPF
0.02 0.02 0.01 0.02 0.01 0.02 0.03 0.02 0.02 0.02 0.02 0.02 0.02 0.01 0.02 0.03 0.03 0.01 0.02 0.04 0.05 0.07 0.06 0.04 0.05 0.07 0.07 0.07 0.06 0.05 0.04 0.03 0.03 0.03 0.03 0.03 0.04 0.05 0.05 0.04 0.03 0.03 0.08
0.02 0.02 0.02 0.02 0.01 0.01 0.02 0.03 0.03 0.02 0.01 0.02 0.02 0.01 0.02 0.03 0.02 0.01 0.03 0.05 0.09 0.10 0.08 0.07 0.08 0.08 0.09 0.07 0.06 0.05 0.03 0.02 0.02 0.02 0.03 0.03 0.04 0.05 0.06 0.06 0.04 0.04 0.06
0.01 0.03 0.03 0.02 0.03 0.04 0.03 0.03 0.03 0.02 0.01 0.02 0.01 0.01 0.01 0.02 0.03 0.05 0.03 0.04 0.07 0.10 0.11 0.09 0.08 0.06 0.06 0.06 0.05 0.04 0.03 0.02 0.03 0.03 0.03 0.03 0.03 0.04 0.05 0.07 0.07 0.07 0.07
0.01 0.02 0.02 0.02 0.03 0.03 0.03 0.02 0.03 0.02 0.02 0.03 0.03 0.02 0.01 0.01 0.02 0.03 0.02 0.02 0.03 0.04 0.06 0.06 0.05 0.04 0.04 0.05 0.06 0.04 0.03 0.03 0.04 0.03 0.03 0.02 0.03 0.04 0.06 0.06 0.06 0.06 0.08
0.01 0.01 0.02 0.02 0.02 0.02 0.02 0.02 0.02 0.01 0.02 0.02 0.02 0.02 0.02 0.02 0.01 0.02 0.02 0.02 0.02 0.02 0.01 0.02 0.02 0.01 0.02 0.03 0.04 0.04 0.04 0.04 0.04 0.03 0.02 0.02 0.03 0.05 0.05 0.05 0.05 0.05 0.07
0.01 0.01 0.02 0.02 0.02 0.02 0.02 0.02 0.01 0.01 0.02 0.02 0.01 0.01 0.01 0.01 0.01 0.02 0.02 0.02 0.02 0.02 0.01 0.01 0.01 0.01 0.02 0.02 0.03 0.03 0.03 0.03 0.03 0.03 0.02 0.02 0.04 0.06 0.06 0.05 0.05 0.07 0.06
0.02 0.01 0.02 0.02 0.01 0.02 0.03 0.03 0.02 0.02 0.02 0.02 0.02 0.01 0.01 0.01 0.00 0.00 0.01 0.02 0.02 0.02 0.01 0.01 0.01 0.02 0.03 0.03 0.02 0.02 0.02 0.02 0.03 0.02 0.02 0.02 0.03 0.05 0.05 0.04 0.05 0.05 0.06
0.01 0.01 0.02 0.02 0.02 0.02 0.02 0.02 0.02 0.02 0.02 0.02 0.01 0.01 0.02 0.02 0.01 0.01 0.02 0.02 0.02 0.03 0.02 0.01 0.02 0.02 0.02 0.01 0.01 0.01 0.01 0.01 0.02 0.03 0.02 0.02 0.04 0.07 0.07 0.06 0.05 0.05 0.04
0.01 0.02 0.04 0.02 0.01 0.01 0.02 0.01 0.01 0.01 0.01 0.02 0.01 0.01 0.03 0.04 0.03 0.01 0.02 0.02 0.01 0.02 0.03 0.02 0.02 0.01 0.00 0.00 0.00 0.00 0.00 0.01 0.02 0.03 0.04 0.06 0.07 0.09 0.12 0.09 0.06 0.06 0.06
0.01 0.02 0.02 0.02 0.02 0.02 0.03 0.02 0.01 0.01 0.01 0.02 0.03 0.02 0.01 0.01 0.01 0.01 0.03 0.03 0.03 0.03 0.03 0.02 0.02 0.01 0.00 0.00 0.00 0.00 0.00 0.00 0.01 0.03 0.04 0.07 0.13 0.20 0.22 0.17 0.11 0.08 0.06
0.01 0.01 0.03 0.03 0.02 0.02 0.03 0.03 0.03 0.01 0.01 0.02 0.03 0.01 0.01 0.01 0.01 0.01 0.02 0.03 0.04 0.04 0.04 0.03 0.02 0.02 0.01 0.00 0.00 0.00 0.00 0.00 0.01 0.02 0.04 0.04 0.06 0.13 0.23 0.22 0.18 0.13 0.08
0.02 0.02 0.02 0.02 0.02 0.01 0.02 0.02 0.03 0.03 0.03 0.03 0.02 0.01 0.01 0.01 0.01 0.00 0.01 0.01 0.02 0.02 0.01 0.01 0.01 0.01 0.00 0.00 0.00 0.00 0.00 0.00 0.00 0.01 0.03 0.04 0.04 0.06 0.10 0.13 0.13 0.11 0.09
0.02 0.02 0.02 0.02 0.01 0.01 0.01 0.01 0.03 0.03 0.03 0.02 0.01 0.01 0.01 0.00 0.01 0.00 0.01 0.01 0.01 0.02 0.02 0.01 0.01 0.00 0.00 0.00 0.00 0.00 0.00 0.01 0.02 0.02 0.03 0.03 0.03 0.04 0.06 0.07 0.08 0.08 0.08
0.02 0.02 0.02 0.02 0.01 0.01 0.01 0.01 0.01 0.01 0.02 0.02 0.01 0.01 0.01 0.01 0.01 0.00 0.01 0.01 0.01 0.01 0.02 0.02 0.01 0.00 0.00 0.00 0.00 0.00 0.00 0.01 0.02 0.03 0.03 0.03 0.04 0.05 0.06 0.07 0.08 0.08 0.07
0.02 0.02 0.02 0.02 0.02 0.01 0.01 0.01 0.01 0.01 0.01 0.00 0.01 0.01 0.01 0.01 0.01 0.00 0.01 0.01 0.01 0.01 0.01 0.01 0.01 0.00 0.00 0.00 0.00 0.00 0.00 0.00 0.01 0.01 0.01 0.01 0.02 0.03 0.04 0.04 0.05 0.06 0.06
0.02 0.02 0.02 0.02 0.02 0.02 0.02 0.01 0.01 0.01 0.01 0.01 0.01 0.01 0.01 0.01 0.01 0.01 0.00 0.00 0.01 0.01 0.01 0.01 0.00 0.00 0.00 0.00 0.00 0.00 0.00 0.00 0.00 0.00 0.00 0.00 0.00 0.01 0.01 0.02 0.02 0.04 0.05
0.02 0.02 0.02 0.02 0.02 0.02 0.01 0.01 0.01 0.01 0.01 0.02 0.02 0.02 0.02 0.01 0.01 0.00 0.00 0.00 0.00 0.00 0.00 0.00 0.00 0.00 0.00 0.00 0.00 0.00 0.00 0.00 0.00 0.00 0.00 0.00 0.00 0.00 0.00 0.01 0.01 0.02 0.05
0.01 0.02 0.02 0.02 0.02 0.03 0.01 0.01 0.01 0.01 0.00 0.01 0.01 0.01 0.01 0.01 0.00 0.00 0.00 0.01 0.01 0.01 0.00 0.00 0.00 0.00 0.00 0.00 0.00 0.00 0.00 0.00 0.00 0.00 0.00 0.00 0.00 0.00 0.00 0.00 0.00 0.00 0.03
0.01 0.02 0.03 0.03 0.02 0.02 0.02 0.01 0.00 0.00 0.01 0.02 0.01 0.01 0.01 0.01 0.00 0.00 0.00 0.01 0.01 0.02 0.02 0.02 0.02 0.01 0.00 0.00 0.00 0.00 0.00 0.00 0.00 0.00 0.00 0.00 0.00 0.00 0.00 0.00 0.00 0.00 0.00
0.02 0.02 0.03 0.02 0.01 0.01 0.01 0.01 0.01 0.01 0.01 0.02 0.02 0.01 0.00 0.01 0.00 0.00 0.01 0.01 0.01 0.01 0.01 0.01 0.01 0.01 0.01 0.00 0.00 0.00 0.00 0.00 0.00 0.00 0.00 0.00 0.00 0.00 0.00 0.00 0.00 0.00 0.00
0.03 0.02 0.02 0.02 0.01 0.01 0.01 0.01 0.01 0.02 0.02 0.02 0.03 0.02 0.01 0.00 0.00 0.00 0.01 0.01 0.01 0.00 0.01 0.01 0.00 0.00 0.00 0.00 0.00 0.00 0.00 0.00 0.00 0.00 0.00 0.00 0.00 0.00 0.00 0.00 0.00 0.00 0.00
0.04 0.03 0.02 0.02 0.02 0.02 0.02 0.01 0.02 0.02 0.01 0.02 0.02 0.02 0.01 0.01 0.00 0.01 0.01 0.01 0.01 0.01 0.01 0.00 0.00 0.00 0.00 0.00 0.00 0.00 0.00 0.01 0.01 0.00 0.00 0.00 0.00 0.00 0.00 0.00 0.00 0.00 0.00
0.04 0.04 0.02 0.02 0.02 0.03 0.02 0.01 0.02 0.02 0.01 0.02 0.02 0.01 0.00 0.00 0.00 0.00 0.01 0.01 0.01 0.00 0.00 0.00 0.00 0.00 0.00 0.00 0.00 0.00 0.00 0.01 0.01 0.01 0.00 0.00 0.00 0.00 0.00 0.00 0.00 0.00 0.00
0.04 0.03 0.02 0.02 0.02 0.02 0.01 0.01 0.01 0.01 0.01 0.01 0.01 0.01 0.01 0.00 0.00 0.00 0.00 0.00 0.00 0.00 0.00 0.00 0.00 0.00 0.00 0.00 0.00 0.00 0.00 0.00 0.01 0.01 0.01 0.00 0.00 0.00 0.00 0.00 0.00 0.00 0.00
0.04 0.03 0.02 0.02 0.01 0.01 0.01 0.01 0.01 0.01 0.02 0.02 0.01 0.01 0.01 0.01 0.00 0.00 0.00 0.00 0.00 0.00 0.00 0.00 0.00 0.00 0.00 0.00 0.00 0.00 0.00 0.00 0.00 0.01 0.01 0.01 0.01 0.01 0.00 0.00 0.00 0.00 0.00
0.03 0.03 0.03 0.02 0.02 0.01 0.01 0.01 0.00 0.01 0.01 0.01 0.01 0.02 0.02 0.01 0.00 0.00 0.00 0.00 0.00 0.00 0.00 0.00 0.00 0.00 0.00 0.00 0.00 0.01 0.00 0.00 0.00 0.00 0.01 0.01 0.00 0.00 0.00 0.00 0.00 0.00 0.00
MSLP
1015.17 1015.14 1015.07 1014.98 1014.88 1014.81 1014.78 1014.81 1014.90 1015.05 1015.24 1015.46 1015.69 1015.91 1016.11 1016.27 1016.40 1016.48 1016.51 1016.49 1016.44 1016.37 1016.29 1016.20 1016.14 1016.09 1016.05 1016.03 1016.02 1015.98 1015.93 1015.85 1015.73 1015.58 1015.39 1015.16 1014.89 1014.58 1014.20 1013.77 1013.28 1012.75 1012.18
1015.30 1015.24 1015.16 1015.07 1015.00 1014.96 1014.97 1015.04 1015.17 1015.36 1015.59 1015.84 1016.10 1016.34 1016.56 1016.73 1016.85 1016.91 1016.92 1016.88 1016.80 1016.71 1016.61 1016.52 1016.45 1016.39 1016.35 1016.31 1016.27 1016.21 1016.13 1016.02 1015.89 1015.73 1015.55 1015.33 1015.08 1014.77 1014.41 1013.98 1013.48 1012.93 1012.34
1015.37 1015.30 1015.23 1015.17 1015.14 1015.15 1015.22 1015.34 1015.51 1015.74 1015.99 1016.27 1016.55 1016.82 1017.05 1017.23 1017.36 1017.41 1017.41 1017.35 1017.26 1017.15 1017.03 1016.93 1016.85 1016.78 1016.72 1016.66 1016.59 1016.50 1016.38 1016.25 1016.09 1015.93 1015.74 1015.53 1015.29 1015.00 1014.65 1014.23 1013.74 1013.18 1012.58
1015.37 1015.31 1015.27 1015.27 1015.31 1015.39 1015.52 1015.69 1015.91 1016.15 1016.43 1016.72 1017.01 1017.29 1017.54 1017.74 1017.88 1017.95 1017.95 1017.90 1017.80 1017.69 1017.57 1017.45 1017.35 1017.27 1017.19 1017.10 1016.99 1016.86 1016.71 1016.54 1016.36 1016.18 1015.98 1015.78 1015.55 1015.27 1014.93 1014.52 1014.03 1013.49 1012.89
1015.35 1015.31 1015.32 1015.39 1015.50 1015.66 1015.86 1016.07 1016.31 1016.57 1016.85 1017.14 1017.43 1017.73 1018.00 1018.23 1018.40 1018.51 1018.54 1018.51 1018.43 1018.32 1018.20 1018.08 1017.96 1017.86 1017.74 1017.62 1017.47 1017.30 1017.11 1016.90 1016.69 1016.48 1016.28 1016.07 1015.83 1015.56 1015.23 1014.83 1014.36 1013.83 1013.24
1015.33 1015.32 1015.39 1015.53 1015.73 1015.96 1016.20 1016.45 1016.71 1016.96 1017.22 1017.50 1017.80 1018.11 1018.41 1018.68 1018.90 1019.06 1019.15 1019.16 1019.12 1019.03 1018.91 1018.79 1018.66 1018.52 1018.38 1018.21 1018.02 1017.81 1017.57 1017.33 1017.08 1016.85 1016.63 1016.40 1016.17 1015.90 1015.58 1015.19 1014.73 1014.21 1013.63
1015.37 1015.39 1015.51 1015.71 1015.97 1016.26 1016.54 1016.81 1017.06 1017.29 1017.54 1017.80 1018.10 1018.42 1018.75 1019.08 1019.37 1019.60 1019.75 1019.83 1019.83 1019.77 1019.67 1019.54 1019.40 1019.23 1019.05 1018.84 1018.61 1018.35 1018.08 1017.80 1017.52 1017.27 1017.03 1016.79 1016.55 1016.28 1015.96 1015.59 1015.14 1014.64 1014.08
1015.51 1015.55 1015.70 1015.94 1016.24 1016.55 1016.85 1017.11 1017.34 1017.55 1017.77 1018.02 1018.31 1018.65 1019.02 1019.41 1019.77 1020.07 1020.31 1020.45 1020.51 1020.49 1020.41 1020.28 1020.13 1019.94 1019.73 1019.49 1019.22 1018.92 1018.61 1018.30 1018.00 1017.73 1017.47 1017.23 1016.99 1016.72 1016.41 1016.04 1015.61 1015.12 1014.58
1015.75 1015.79 1015.95 1016.21 1016.51 1016.83 1017.11 1017.35 1017.55 1017.73 1017.92 1018.15 1018.44 1018.80 1019.21 1019.64 1020.07 1020.46 1020.76 1020.97 1021.09 1021.11 1021.06 1020.95 1020.79 1020.59 1020.36 1020.10 1019.80 1019.48 1019.15 1018.82 1018.51 1018.23 1017.97 1017.72 1017.48 1017.22 1016.92 1016.57 1016.15 1015.68 1015.16
1016.08 1016.12 1016.27 1016.50 1016.79 1017.07 1017.32 1017.52 1017.68 1017.82 1017.98 1018.19 1018.47 1018.84 1019.28 1019.76 1020.25 1020.69 1021.06 1021.33 1021.50 1021.58 1021.56 1021.48 1021.34 1021.15 1020.92 1020.65 1020.36 1020.03 1019.70 1019.36 1019.05 1018.77 1018.51 1018.27 1018.04 1017.79 1017.51 1017.17 1016.77 1016.31 1015.81
1016.47 1016.48 1016.60 1016.80 1017.03 1017.27 1017.47 1017.62 1017.73 1017.83 1017.95 1018.14 1018.42 1018.78 1019.23 1019.74 1020.25 1020.74 1021.16 1021.48 1021.71 1021.84 1021.88 1021.84 1021.75 1021.60 1021.40 1021.15 1020.88 1020.57 1020.25 1019.93 1019.62 1019.35 1019.10 1018.87 1018.66 1018.42 1018.15 1017.83 1017.45 1017.01 1016.53
1016.86 1016.85 1016.93 1017.07 1017.25 1017.42 1017.56 1017.66 1017.72 1017.78 1017.87 1018.03 1018.28 1018.63 1019.07 1019.57 1020.10 1020.60 1021.05 1021.42 1021.70 1021.89 1022.00 1022.04 1022.01 1021.93 1021.79 1021.61 1021.38 1021.11 1020.82 1020.52 1020.23 1019.97 1019.74 1019.52 1019.32 1019.10 1018.84 1018.54 1018.18 1017.76 1017.29
1017.20 1017.16 1017.21 1017.30 1017.42 1017.54 1017.62 1017.66 1017.68 1017.70 1017.76 1017.88 1018.10 1018.42 1018.82 1019.29 1019.80 1020.30 1020.76 1021.16 1021.50 1021.76 1021.95 1022.08 1022.16 1022.17 1022.13 1022.02 1021.86 1021.65 1021.40 1021.14 1020.88 1020.63 1020.41 1020.21 1020.01 1019.80 1019.56 1019.27 1018.92 1018.51 1018.06
1017.46 1017.41 1017.43 1017.48 1017.56 1017.62 1017.66 1017.67 1017.65 1017.64 1017.67 1017.75 1017.93 1018.19 1018.54 1018.96 1019.42 1019.90 1020.35 1020.78 1021.16 1021.50 1021.79 1022.03 1022.22 1022.35 1022.42 1022.41 1022.34 1022.20 1022.01 1021.78 1021.55 1021.32 1021.10 1020.91 1020.71 1020.51 1020.27 1019.99 1019.65 1019.26 1018.82
1017.64 1017.60 1017.60 1017.63 1017.67 1017.71 1017.72 1017.71 1017.68 1017.65 1017.65 1017.70 1017.82 1018.03 1018.31 1018.66 1019.05 1019.48 1019.91 1020.35 1020.77 1021.17 1021.56 1021.91 1022.22 1022.48 1022.67 1022.77 1022.79 1022.73 1022.59 1022.42 1022.21 1021.99 1021.79 1021.59 1021.40 1021.19 1020.96 1020.68 1020.35 1019.97 1019.55
1017.77 1017.74 1017.74 1017.77 1017.80 1017.83 1017.84 1017.83 1017.80 1017.76 1017.75 1017.77 1017.84 1017.98 1018.19 1018.46 1018.78 1019.14 1019.54 1019.96 1020.41 1020.87 1021.33 1021.78 1022.20 1022.57 1022.87 1023.07 1023.18 1023.20 1023.13 1022.99 1022.82 1022.63 1022.43 1022.24 1022.04 1021.84 1021.60 1021.33 1021.01 1020.64 1020.23
1017.89 1017.88 1017.89 1017.93 1017.97 1018.02 1018.04 1018.05 1018.03 1018.01 1017.99 1017.99 1018.02 1018.10 1018.23 1018.42 1018.65 1018.95 1019.29 1019.69 1020.13 1020.62 1021.13 1021.65 1022.15 1022.61 1022.99 1023.28 1023.47 1023.55 1023.55 1023.46 1023.33 1023.17 1022.99 1022.81 1022.63 1022.43 1022.20 1021.93 1021.61 1021.26 1020.87
1018.06 1018.06 1018.09 1018.14 1018.21 1018.27 1018.32 1018.36 1018.37 1018.37 1018.36 1018.35 1018.35 1018.38 1018.44 1018.55 1018.71 1018.92 1019.20 1019.55 1019.97 1020.45 1020.97 1021.52 1022.06 1022.57 1023.01 1023.36 1023.61 1023.75 1023.80 1023.78 1023.69 1023.57 1023.44 1023.29 1023.13 1022.94 1022.73 1022.47 1022.17 1021.83 1021.46
1018.28 1018.30 1018.34 1018.41 1018.49 1018.58 1018.66 1018.73 1018.77 1018.80 1018.80 1018.79 1018.78 1018.77 1018.78 1018.81 1018.90 1019.04 1019.25 1019.53 1019.90 1020.34 1020.84 1021.37 1021.91 1022.43 1022.89 1023.27 1023.55 1023.75 1023.86 1023.89 1023.87 1023.82 1023.74 1023.64 1023.53 1023.38 1023.19 1022.95 1022.67 1022.35 1022.00
1018.57 1018.59 1018.63 1018.71 1018.80 1018.90 1019.00 1019.10 1019.17 1019.21 1019.23 1019.23 1019.21 1019.18 1019.15 1019.14 1019.16 1019.24 1019.38 1019.59 1019.89 1020.27 1020.71 1021.19 1021.69 1022.17 1022.61 1022.99 1023.30 1023.53 1023.69 1023.79 1023.85 1023.88 1023.88 1023.85 1023.80 1023.70 1023.56 1023.36 1023.10 1022.81 1022.48
1018.88 1018.90 1018.94 1019.01 1019.10 1019.20 1019.30 1019.40 1019.49 1019.55 1019.58 1019.59 1019.57 1019.53 1019.48 1019.44 1019.42 1019.44 1019.52 1019.67 1019.89 1020.19 1020.55 1020.95 1021.38 1021.80 1022.20 1022.55 1022.86 1023.11 1023.32 1023.49 1023.63 1023.74 1023.83 1023.90 1023.92 1023.90 1023.81 1023.66 1023.44 1023.18 1022.88
1019.18 1019.20 1019.23 1019.28 1019.35 1019.43 1019.51 1019.60 1019.67 1019.73 1019.77 1019.78 1019.77 1019.73 1019.68 1019.63 1019.59 1019.58 1019.61 1019.70 1019.85 1020.07 1020.34 1020.65 1020.99 1021.33 1021.66 1021.98 1022.26 1022.53 1022.77 1023.00 1023.22 1023.42 1023.61 1023.77 1023.88 1023.94 1023.92 1023.83 1023.67 1023.44 1023.17
1019.42 1019.44 1019.45 1019.48 1019.51 1019.55 1019.60 1019.65 1019.70 1019.75 1019.78 1019.79 1019.78 1019.76 1019.72 1019.67 1019.63 1019.61 1019.61 1019.66 1019.75 1019.90 1020.08 1020.30 1020.54 1020.79 1021.05 1021.31 1021.57 1021.83 1022.09 1022.36 1022.64 1022.93 1023.21 1023.46 1023.66 1023.80 1023.86 1023.84 1023.73 1023.55 1023.33
1019.58 1019.59 1019.60 1019.59 1019.59 1019.58 1019.58 1019.58 1019.59 1019.60 1019.61 1019.61 1019.61 1019.60 1019.58 1019.56 1019.53 1019.51 1019.51 1019.53 1019.58 1019.66 1019.77 1019.91 1020.06 1020.23 1020.41 1020.61 1020.82 1021.05 1021.32 1021.61 1021.94 1022.28 1022.63 1022.95 1023.24 1023.46 1023.60 1023.65 1023.61 1023.50 1023.34
1019.64 1019.67 1019.67 1019.64 1019.59 1019.53 1019.47 1019.41 1019.37 1019.34 1019.33 1019.32 1019.32 1019.33 1019.33 1019.32 1019.32 1019.31 1019.31 1019.32 1019.35 1019.38 1019.43 1019.49 1019.57 1019.66 1019.76 1019.89 1020.06 1020.26 1020.50 1020.79 1021.14 1021.51 1021.90 1022.28 1022.62 1022.91 1023.12 1023.25 1023.28 1023.25 1023.16
1019.65 1019.70 1019.70 1019.65 1019.56 1019.45 1019.33 1019.22 1019.13 1019.06 1019.01 1018.99 1018.99 1018.99 1019.01 1019.03 1019.04 1019.05 1019.05 1019.05 1019.05 1019.05 1019.05 1019.05 1019.06 1019.08 1019.12 1019.19 1019.29 1019.45 1019.66 1019.93 1020.26 1020.63 1021.04 1021.44 1021.83 1022.17 1022.44 1022.64 1022.75 1022.80 1022.79
Thickness
5719 5718 5717 5716 5715 5715 5714 5714 5714 5714 5713 5713 5713 5711 5710 5710 5710 5710 5711 5712 5713 5713 5714 5714 5714 5715 5715 5716 5716 5717 5717 5718 5719 5720 5721 5723 5724 5726 5727 5728 5729 5731 5732
5716 5715 5714 5713 5712 5712 5711 5711 5710 5710 5709 5709 5708 5707 5706 5706 5705 5706 5707 5707 5708 5708 5708 5708 5709 5710 5710 5711 5711 5712 5712 5713 5714 5715 5716 5718 5719 5720 5722 5723 5724 5725 5726
5714 5713 5711 5710 5710 5709 5708 5707 5706 5706 5705 5705 5704 5703 5702 5702 5701 5701 5702 5702 5702 5703 5703 5703 5704 5704 5705 5705 5706 5707 5707 5708 5709 5710 5711 5712 5713 5714 5716 5717 5718 5719 5720
5712 5710 5709 5708 5707 5706 5705 5704 5702 5701 5700 5699 5699 5698 5698 5698 5698 5697 5697 5697 5697 5697 5697 5697 5698 5699 5699 5700 5701 5701 5702 5703 5704 5705 5706 5707 5708 5709 5710 5711 5712 5713 5714
5710 5709 5707 5705 5704 5703 5702 5701 5699 5698 5696 5695 5695 5694 5694 5694 5694 5694 5693 5692 5692 5692 5692 5692 5692 5693 5693 5694 5695 5696 5697 5698 5699 5700 5701 5701 5702 5703 5704 5705 5707 5708 5709
5708 5707 5704 5703 5702 5700 5699 5698 5696 5695 5693 5693 5693 5690 5689 5689 5690 5689 5689 5688 5687 5687 5687 5687 5687 5687 5688 5689 5690 5691 5692 5693 5694 5695 5696 5696 5698 5699 5699 5700 5701 5702 5703
5706 5705 5702 5701 5700 5698 5697 5696 5694 5692 5690 5690 5687 5684 5684 5686 5685 5685 5685 5685 5684 5684 5683 5683 5683 5682 5682 5683 5684 5686 5687 5689 5690 5690 5691 5692 5693 5693 5694 5694 5695 5696 5696
5704 5703 5701 5699 5698 5696 5695 5694 5693 5689 5688 5689 5685 5679 5675 5676 5679 5681 5681 5681 5680 5680 5679 5679 5678 5678 5678 5678 5679 5680 5682 5683 5685 5685 5686 5687 5687 5688 5688 5689 5689 5689 5690
5702 5701 5700 5698 5696 5695 5692 5691 5691 5689 5686 5686 5687 5682 5674 5669 5671 5674 5675 5676 5676 5676 5675 5674 5674 5674 5674 5674 5675 5675 5677 5678 5680 5680 5681 5682 5682 5682 5684 5684 5683 5682 5682
5700 5699 5698 5697 5695 5693 5691 5690 5690 5689 5687 5684 5685 5685 5683 5679 5672 5667 5669 5671 5672 5671 5671 5671 5670 5670 5670 5670 5671 5671 5672 5673 5674 5675 5675 5676 5676 5676 5678 5677 5676 5675 5676
5697 5697 5696 5695 5693 5692 5691 5690 5689 5688 5687 5685 5684 5683 5682 5679 5677 5670 5664 5665 5666 5667 5667 5667 5667 5667 5667 5667 5667 5667 5667 5668 5669 5669 5669 5669 5670 5670 5670 5670 5669 5669 5669
5694 5694 5694 5693 5692 5691 5690 5689 5688 5687 5687 5686 5685 5684 5682 5679 5675 5672 5666 5663 5662 5662 5663 5663 5663 5663 5663 5663 5662 5662 5663 5663 5662 5662 5662 5662 5663 5663 5663 5663 5662 5662 5662
5691 5692 5692 5691 5690 5690 5689 5688 5687 5686 5686 5685 5684 5683 5683 5682 5680 5675 5669 5663 5660 5659 5659 5659 5659 5659 5659 5659 5658 5658 5658 5657 5657 5656 5656 5656 5655 5655 5656 5655 5655 5655 5655
5691 5691 5691 5690 5689 5689 5688 5687 5686 5685 5685 5684 5683 5682 5681 5681 5680 5677 5672 5665 5658 5655 5654 5655 5655 5656 5655 5655 5654 5654 5653 5653 5652 5651 5650 5650 5649 5649 5648 5648 5648 5648 5647
5691 5690 5689 5688 5688 5687 5687 5686 5684 5683 5683 5682 5681 5681 5680 5679 5678 5677 5674 5670 5662 5653 5650 5652 5652 5653 5652 5652 5651 5650 5649 5648 5647 5646 5645 5644 5643 5643 5642 5641 5641 5640 5640
5691 5689 5688 5687 5686 5686 5685 5684 5683 5682 5681 5680 5679 5678 5677 5676 5676 5675 5673 5670 5667 5660 5652 5651 5651 5651 5650 5649 5647 5646 5645 5643 5642 5641 5640 5639 5638 5637 5636 5635 5634 5633 5632
5690 5689 5688 5687 5686 5684 5684 5682 5681 5680 5679 5678 5677 5676 5675 5674 5673 5672 5670 5668 5665 5661 5654 5650 5650 5649 5647 5646 5644 5642 5641 5639 5638 5636 5635 5633 5632 5631 5630 5629 5628 5626 5625
5689 5688 5688 5686 5685 5683 5682 5681 5679 5678 5677 5675 5675 5674 5673 5672 5670 5669 5667 5665 5662 5660 5656 5650 5647 5646 5644 5643 5641 5639 5637 5635 5633 5632 5630 5628 5627 5625 5624 5623 5621 5620 5619
5688 5687 5686 5685 5683 5682 5681 5679 5678 5677 5675 5674 5673 5672 5671 5670 5667 5666 5664 5662 5660 5659 5655 5650 5645 5643 5641 5640 5637 5635 5633 5631 5629 5627 5625 5623 5621 5620 5618 5617 5615 5614 5612
5685 5684 5684 5683 5682 5681 5679 5678 5676 5674 5673 5672 5671 5671 5669 5668 5666 5664 5662 5660 5658 5654 5651 5647 5643 5640 5638 5636 5634 5631 5628 5626 5625 5623 5621 5618 5616 5614 5613 5611 5610 5608 5606
5684 5683 5682 5681 5680 5679 5678 5676 5674 5672 5670 5669 5669 5668 5668 5668 5666 5665 5662 5659 5656 5652 5647 5644 5640 5637 5635 5632 5630 5628 5625 5622 5620 5618 5616 5614 5612 5610 5607 5605 5603 5602 5600
5681 5680 5679 5678 5677 5677 5676 5675 5673 5671 5668 5667 5665 5665 5665 5665 5664 5663 5661 5659 5656 5652 5646 5642 5637 5635 5633 5631 5629 5626 5622 5618 5615 5614 5611 5608 5606 5604 5602 5600 5598 5596 5594
5677 5676 5675 5675 5674 5673 5673 5672 5671 5669 5666 5665 5663 5662 5662 5661 5660 5658 5657 5655 5653 5651 5649 5644 5638 5635 5633 5631 5628 5624 5620 5617 5613 5611 5608 5603 5601 5598 5597 5595 5593 5591 5588
5674 5673 5672 5672 5671 5671 5671 5670 5668 5666 5664 5662 5661 5660 5659 5657 5656 5655 5652 5649 5647 5646 5645 5642 5640 5637 5635 5632 5629 5625 5620 5614 5611 5608 5605 5598 5595 5593 5592 5590 5587 5585 5582
5671 5670 5670 5669 5668 5667 5667 5666 5665 5662 5659 5658 5658 5657 5656 5655 5654 5652 5649 5645 5642 5641 5640 5639 5637 5635 5633 5630 5626 5621 5615 5610 5605 5602 5600 5596 5591 5588 5586 5584 5582 5579 5576
5669 5668 5666 5665 5665 5664 5664 5663 5662 5659 5655 5654 5653 5653 5653 5652 5651 5649 5645 5642 5638 5636 5635 5633 5631 5629 5627 5625 5622 5619 5615 5608 5602 5598 5596 5592 5587 5583 5579 5578 5575 5573 5570